TimePST,TemperatureF,Dew PointF,Humidity,Sea Level PressureIn,VisibilityMPH,Wind Direction,Wind SpeedMPH,Gust SpeedMPH,PrecipitationIn,Events,Conditions,WindDirDegrees,DateUTC
12:53 AM,46.0,41.0,83,30.06,10.0,SE,9.2,16.1,N/A,,Overcast,140,2012-12-11 08:53:00
1:53 AM,45.0,39.9,82,30.02,10.0,SSE,6.9,-,N/A,,Overcast,150,2012-12-11 09:53:00
2:20 AM,44.6,39.2,81,29.99,10.0,SSE,6.9,-,N/A,,Overcast,150,2012-12-11 10:20:00
2:53 AM,45.0,39.9,82,29.98,10.0,ESE,5.8,-,N/A,,Overcast,110,2012-12-11 10:53:00
3:44 AM,44.6,39.2,81,29.95,10.0,SE,4.6,-,N/A,,Overcast,130,2012-12-11 11:44:00
3:53 AM,45.0,39.9,82,29.95,10.0,SSE,5.8,-,N/A,,Overcast,150,2012-12-11 11:53:00
4:53 AM,46.0,39.9,79,29.91,10.0,SSE,8.1,-,N/A,,Overcast,150,2012-12-11 12:53:00
5:00 AM,46.4,39.2,76,29.89,10.0,SSE,8.1,-,N/A,,Overcast,160,2012-12-11 13:00:00
5:21 AM,46.4,39.2,76,29.88,10.0,SSE,6.9,-,N/A,,Mostly Cloudy,160,2012-12-11 13:21:00
5:43 AM,46.4,39.2,76,29.87,10.0,SSE,9.2,-,N/A,,Overcast,150,2012-12-11 13:43:00
5:53 AM,46.0,39.0,76,29.88,10.0,SSE,8.1,-,N/A,,Overcast,160,2012-12-11 13:53:00
6:30 AM,46.4,39.2,76,29.85,10.0,South,9.2,-,N/A,,Overcast,170,2012-12-11 14:30:00
6:53 AM,46.0,39.0,76,29.85,10.0,SE,6.9,-,N/A,,Overcast,130,2012-12-11 14:53:00
7:41 AM,44.6,39.2,81,29.79,10.0,SE,10.4,17.3,N/A,,Overcast,130,2012-12-11 15:41:00
7:53 AM,45.0,39.0,80,29.80,10.0,SSE,5.8,-,N/A,,Overcast,150,2012-12-11 15:53:00
8:53 AM,46.0,39.0,76,29.78,10.0,ESE,3.5,-,N/A,,Overcast,120,2012-12-11 16:53:00
9:53 AM,46.9,39.9,77,29.76,8.0,Calm,Calm,-,0.00,Rain,Light Rain,0,2012-12-11 17:53:00
10:53 AM,46.0,41.0,83,29.73,10.0,ESE,3.5,-,0.03,,Overcast,110,2012-12-11 18:53:00
11:53 AM,46.9,41.0,80,29.68,10.0,East,8.1,-,N/A,,Overcast,100,2012-12-11 19:53:00
12:53 PM,48.0,41.0,77,29.65,7.0,SE,4.6,-,N/A,,Overcast,130,2012-12-11 20:53:00
1:53 PM,48.0,41.0,77,29.61,5.0,SE,5.8,-,0.03,Rain,Light Rain,140,2012-12-11 21:53:00
2:53 PM,46.9,41.0,80,29.60,10.0,SE,6.9,-,0.01,Rain,Light Rain,140,2012-12-11 22:53:00
3:53 PM,46.0,41.0,83,29.58,9.0,ESE,4.6,-,0.03,Rain,Light Rain,110,2012-12-11 23:53:00
4:53 PM,46.0,42.1,86,29.57,10.0,ESE,4.6,-,0.02,Rain,Light Rain,120,2012-12-12 00:53:00
5:45 PM,46.4,42.8,87,29.57,10.0,Calm,Calm,-,0.00,,Overcast,0,2012-12-12 01:45:00
5:53 PM,46.9,41.0,80,29.59,10.0,SE,3.5,-,0.00,,Overcast,140,2012-12-12 01:53:00
6:53 PM,46.9,39.9,77,29.58,10.0,SSE,5.8,-,N/A,,Overcast,150,2012-12-12 02:53:00
7:53 PM,46.0,39.9,79,29.59,10.0,SE,3.5,-,N/A,,Overcast,130,2012-12-12 03:53:00
8:53 PM,46.0,39.9,79,29.60,10.0,SE,3.5,-,N/A,,Overcast,140,2012-12-12 04:53:00
9:53 PM,46.9,39.9,77,29.61,10.0,South,8.1,-,N/A,,Overcast,170,2012-12-12 05:53:00
10:53 PM,46.9,39.9,77,29.63,10.0,SSE,5.8,-,N/A,,Overcast,160,2012-12-12 06:53:00
11:53 PM,46.9,39.9,77,29.64,10.0,SSE,4.6,-,N/A,,Overcast,150,2012-12-12 07:53:00